Regional Weather Roundup
Issued by NWS Sioux Falls, SD

Home | Current Version | Previous Version | Text Only | Print | Product List | Glossary On
Versions: 1 2 3 4 5 6 7 8 9 10 11 12 13 14 15 16 17 18 19 20 21 22 23 24 25 26 27 28 29 30 31 32 33 34 35 36 37 38 39 40 41 42 43 44 45 46 47 48 49 50
022
ASUS43 KFSD 161510
RWRFSD

WEATHER ROUNDUP FOR SE SOUTH DAKOTA/SW MINNESOTA/NW IOWA
NATIONAL WEATHER SERVICE SIOUX FALLS SD
1000 AM CDT WED AUG 16 2017

NOTE: "FAIR" INDICATES FEW OR NO CLOUDS BELOW 12,000 FEET WITH NO
SIGNIFICANT WEATHER AND OR OBSTRUCTIONS TO VISIBILITY.


SDZ038>040-050-052>070-161600-
SOUTHEAST SOUTH DAKOTA

CITY           SKY/WX    TMP DP  RH WIND       PRES   REMARKS
BROOKINGS      HVY RAIN  66  64  94 S6        29.87R
CHAMBERLAIN    CLOUDY    69  69 100 N5        29.85R
HURON          LGT RAIN  67  66  97 E5        29.84S FOG
MADISON        LGT RAIN  64  64 100 E3        29.86F
MITCHELL       LGT RAIN  67  66  97 NE6       29.85S FOG
SIOUX FALLS    LGT RAIN  68  67  96 E10       29.82F
WINNER         CLOUDY    69  66  90 N9        29.87R
YANKTON        RAIN      66  64  94 NE8       29.81F FOG
$$

MNZ071-072-080-081-089-090-097-098-161600-
SOUTHWEST MINNESOTA

CITY           SKY/WX    TMP DP  RH WIND       PRES   REMARKS
FAIRMONT       CLOUDY    66  66 100 SE6       29.87F FOG
JACKSON        FOG       66  66 100 CALM      29.87F VSB 1
LUVERNE        LGT RAIN  64  63  94 N3        29.84F
MARSHALL       LGT RAIN  68  66  94 SE3       29.86R FOG
MONTEVIDEO     DRIZZLE   68  68 100 S6        29.85S
PIPESTONE      HVY RAIN  66  64  94 SW5       29.87R
REDWOOD FALLS  CLOUDY    69  65  86 SE7       29.85F
TRACY          CLOUDY    69  68  96 S3        29.86S
WINDOM         CLOUDY    68  66  94 E7        29.87S FOG
WORTHINGTON    RAIN      67  66  97 E7        29.87S FOG
$$

IAZ001>003-012>014-020>022-031-032-NEZ013-014-SDZ071-161600-
NORTHWEST IOWA

CITY           SKY/WX    TMP DP  RH WIND       PRES   REMARKS
CHEROKEE       CLOUDY    68  68 100 E8        29.82F THUNDER
DENISON        CLOUDY    73  70  88 SE7       29.80F
ESTHERVILLE    CLOUDY    65  65 100 E9        29.85F FOG
LE MARS        RAIN      68  68 100 NE8       29.79F
ORANGE CITY    RAIN      70  70 100 E8        29.81F
SHELDON        LGT RAIN  68  68 100 E7        29.81F
SIOUX CITY     LGT RAIN  69  69 100 E9        29.76F
SPENCER        TSTM      67  67 100 E8        29.84S FOG
STORM LAKE     FOG       68  68 100 E8        29.83F VSB 1/2
$$

ABBREVIATIONS USED IN REMARKS
   TC - TEMPERATURE IN CELSIUS
  WCI - WIND CHILL INDEX
   HX - HEAT INDEX
  VSB - VISIBILITY





USA.gov is the U.S. government's official web portal to all federal, state and local government web resources and services.